CHINASAT 1D (ZX 1D)

Last updated on Sat Jun 29 2024 00:02:41 GMT+0000 (Coordinated Universal Time)

1 49505U 21114A 24180.61297965 -.00000333 00000+0 00000+0 0 9990 2 49505 0.0453 107.2076 0001705 92.9073 67.8950 1.00269174 9625
UTC large
Height (km)
Speed (km/s)
/
Latitude / Longitude
Inclination (degrees)
Orbital Period (minutes)
Azimuth
Elevation
Range (km)
Doppler Factor

Next 0 passes for location: London (51.5072 / 0.1276)

Sorry there are no passes over London.